User: anonymous   Login
Location: Veyrier
(46.1830°N, 6.2000°E)
Time: 15:31:50
(UTC+01:00)
Language:

Iridium 98 - Orbit

View from above orbital plane
View from above orbital plane
View from above satellite
View from above satellite

Ground track
Ground track

The orbit data is extracted from the following two-line orbital elements,

1 27451U 02031B   16339.48361307  .00000164  00000-0  51358-4 0  9996
2 27451  86.3961 103.6283 0002158  97.6036 306.0111 14.34213980763399
Epoch (UTC): 04 December 2016 11:36:24
Eccentricity: 0.0002158
inclination: 86.3961°
perigee height: 776 km
apogee height: 779 km
right ascension of ascending node: 103.6283°
argument of perigee: 97.6036°
revolutions per day: 14.34213980
mean anomaly at epoch: 306.0111°
orbit number at epoch: 76339

The dashed part of the orbit path shows where the satellite is in the earth's shadow,  

DLR